| time (UTC) | temp F | wind direction | speed knots | gust knots | rain 1hr in | rain 24hr in | rain mn in | humidity % | barometer mb |
| 20260504150406 | 85 | 0 | 0.0 | 0.0 | 0.00 | 0.00 | 0.00 | 89 | 979.0 |
| 20260504141013 | 85 | 0 | 0.0 | 0.0 | 0.00 | 0.00 | 0.00 | 86 | 979.0 |
| 20260504140533 | 85 | 0 | 0.0 | 0.0 | 0.00 | 0.00 | 0.00 | 84 | 979.0 |
| 20260504140449 | 85 | 0 | 0.0 | 0.0 | 0.00 | 0.00 | 0.00 | 84 | 979.0 |
| 20260504140117 | 85 | 0 | 0.0 | 0.0 | 0.00 | 0.00 | 0.00 | 84 | 979.0 |
| 20260504140106 | 86 | 0 | 0.0 | 0.0 | 0.00 | 0.00 | 0.00 | 82 | 979.0 |
| 20260504130806 | 85 | 0 | 0.0 | 0.0 | 0.00 | 0.00 | 0.00 | 80 | 977.0 |
| 20260504130528 | 86 | 0 | 0.0 | 0.0 | 0.00 | 0.00 | 0.00 | 80 | 977.0 |
| 20260504110643 | 87 | 0 | 0.0 | 0.0 | 0.00 | 0.00 | 0.00 | 72 | 976.0 |
| 20260504110234 | 87 | 0 | 0.0 | 0.0 | 0.00 | 0.00 | 0.00 | 71 | 976.0 |
| 20260504110121 | 87 | 0 | 0.0 | 0.0 | 0.00 | 0.00 | 0.00 | 71 | 976.0 |
| 20260504100208 | 86 | 0 | 0.0 | 0.0 | 0.00 | 0.00 | 0.00 | 81 | 976.0 |
| 20260504081947 | 89 | 0 | 0.0 | 0.0 | 0.00 | 0.00 | 0.00 | 62 | 976.0 |
| 20260504081424 | 90 | 0 | 0.0 | 0.0 | 0.00 | 0.00 | 0.00 | 60 | 976.0 |
| 20260504080900 | 90 | 0 | 0.0 | 0.0 | 0.00 | 0.00 | 0.00 | 58 | 976.0 |
| 20260504080338 | 91 | 0 | 0.0 | 0.0 | 0.00 | 0.00 | 0.00 | 54 | 976.0 |
| 20260504050552 | 99 | 0 | 0.0 | 0.0 | 0.00 | 0.00 | 0.00 | 52 | 979.0 |
| 20260504045949 | 98 | 0 | 0.0 | 0.0 | 0.00 | 0.00 | 0.00 | 53 | 979.0 |
| 20260504045426 | 97 | 0 | 0.0 | 0.0 | 0.00 | 0.00 | 0.00 | 52 | 979.0 |
| 20260504044904 | 98 | 0 | 0.0 | 0.0 | 0.00 | 0.00 | 0.00 | 53 | 979.0 |
| 20260504044342 | 99 | 0 | 0.0 | 0.0 | 0.00 | 0.00 | 0.00 | 52 | 979.0 |
| 20260504043818 | 98 | 0 | 0.0 | 0.0 | 0.00 | 0.00 | 0.00 | 53 | 979.0 |
| 20260504043256 | 98 | 0 | 0.0 | 0.0 | 0.00 | 0.00 | 0.00 | 52 | 979.0 |
| 20260504042734 | 98 | 0 | 0.0 | 0.0 | 0.00 | 0.00 | 0.00 | 52 | 979.0 |
| 20260504042210 | 97 | 0 | 0.0 | 0.0 | 0.00 | 0.00 | 0.00 | 53 | 979.0 |
| 20260504041657 | 97 | 0 | 0.0 | 0.0 | 0.00 | 0.00 | 0.00 | 52 | 979.0 |
| 20260504041648 | 97 | 0 | 0.0 | 0.0 | 0.00 | 0.00 | 0.00 | 52 | 979.0 |
| 20260504041126 | 97 | 0 | 0.0 | 0.0 | 0.00 | 0.00 | 0.00 | 52 | 979.0 |
| 20260504040604 | 98 | 0 | 0.0 | 0.0 | 0.00 | 0.00 | 0.00 | 979.0 | |
| 20260504040041 | 97 | 0 | 0.0 | 0.0 | 0.00 | 0.00 | 0.00 | 53 | 979.0 |
| 20260504035518 | 97 | 0 | 0.0 | 0.0 | 0.00 | 0.00 | 0.00 | 54 | 979.0 |
| 20260504034955 | 97 | 0 | 0.0 | 0.0 | 0.00 | 0.00 | 0.00 | 54 | 980.0 |
| 20260504034433 | 98 | 0 | 0.0 | 0.0 | 0.00 | 0.00 | 0.00 | 54 | 980.0 |
| 20260504033911 | 97 | 0 | 0.0 | 0.0 | 0.00 | 0.00 | 0.00 | 53 | 979.0 |
| 20260504033346 | 98 | 0 | 0.0 | 0.0 | 0.00 | 0.00 | 0.00 | 52 | 979.0 |
| 20260504032824 | 98 | 0 | 0.0 | 0.0 | 0.00 | 0.00 | 0.00 | 52 | 980.0 |
| 20260504032259 | 98 | 0 | 0.0 | 0.0 | 0.00 | 0.00 | 0.00 | 53 | 980.0 |
| 20260504031737 | 98 | 0 | 0.0 | 0.0 | 0.00 | 0.00 | 0.00 | 55 | 980.0 |
| 20260504031212 | 96 | 0 | 0.0 | 0.0 | 0.00 | 0.00 | 0.00 | 57 | 980.0 |
| 20260504030649 | 96 | 0 | 0.0 | 0.0 | 0.00 | 0.00 | 0.00 | 56 | 980.0 |
| 20260504030126 | 96 | 0 | 0.0 | 0.0 | 0.00 | 0.00 | 0.00 | 56 | 980.0 |
| 20260504025604 | 97 | 0 | 0.0 | 0.0 | 0.00 | 0.00 | 0.00 | 56 | 980.0 |
| 20260504025040 | 96 | 0 | 0.0 | 0.0 | 0.00 | 0.00 | 0.00 | 56 | 980.0 |
| 20260504024519 | 97 | 0 | 0.0 | 0.0 | 0.00 | 0.00 | 0.00 | 55 | 980.0 |
| 20260504023955 | 97 | 0 | 0.0 | 0.0 | 0.00 | 0.00 | 0.00 | 55 | 980.0 |
| 20260504023432 | 98 | 0 | 0.0 | 0.0 | 0.00 | 0.00 | 0.00 | 53 | 980.0 |
| 20260504022917 | 98 | 0 | 0.0 | 0.0 | 0.00 | 0.00 | 0.00 | 45 | 980.0 |
| 20260504022908 | 98 | 0 | 0.0 | 0.0 | 0.00 | 0.00 | 0.00 | 45 | 980.0 |
| 20260504022347 | 98 | 0 | 0.0 | 0.0 | 0.00 | 0.00 | 0.00 | 56 | 980.0 |
| 20260504021821 | 97 | 0 | 0.0 | 0.0 | 0.00 | 0.00 | 0.00 | 57 | 980.0 |
| 20260504021259 | 97 | 0 | 0.0 | 0.0 | 0.00 | 0.00 | 0.00 | 58 | 980.0 |
| 20260504020736 | 96 | 0 | 0.0 | 0.0 | 0.00 | 0.00 | 0.00 | 59 | 980.0 |
| 20260504020216 | 96 | 0 | 0.0 | 0.0 | 0.00 | 0.00 | 0.00 | 59 | 980.0 |
| 20260504015652 | 95 | 0 | 0.0 | 0.0 | 0.00 | 0.00 | 0.00 | 61 | 980.0 |
| 20260504015130 | 95 | 0 | 0.0 | 0.0 | 0.00 | 0.00 | 0.00 | 62 | 980.0 |
| 20260504014604 | 96 | 0 | 0.0 | 0.0 | 0.00 | 0.00 | 0.00 | 61 | 980.0 |
| 20260504014042 | 95 | 0 | 0.0 | 0.0 | 0.00 | 0.00 | 0.00 | 62 | 980.0 |
| 20260504013522 | 95 | 0 | 0.0 | 0.0 | 0.00 | 0.00 | 0.00 | 61 | 980.0 |
| 20260504012959 | 94 | 0 | 0.0 | 0.0 | 0.00 | 0.00 | 0.00 | 62 | 980.0 |
| 20260504012429 | 94 | 0 | 0.0 | 0.0 | 0.00 | 0.00 | 0.00 | 62 | 980.0 |
| 20260504011909 | 94 | 0 | 0.0 | 0.0 | 0.00 | 0.00 | 0.00 | 62 | 980.0 |
| 20260504011345 | 93 | 0 | 0.0 | 0.0 | 0.00 | 0.00 | 0.00 | 62 | 980.0 |
| 20260504010821 | 93 | 0 | 0.0 | 0.0 | 0.00 | 0.00 | 0.00 | 63 | 980.0 |
| 20260504010258 | 92 | 0 | 0.0 | 0.0 | 0.00 | 0.00 | 0.00 | 66 | 979.0 |
| 20260504005732 | 91 | 0 | 0.0 | 0.0 | 0.00 | 0.00 | 0.00 | 67 | 979.0 |
| 20260504005207 | 90 | 0 | 0.0 | 0.0 | 0.00 | 0.00 | 0.00 | 70 | 979.0 |
| 20260504004645 | 89 | 0 | 0.0 | 0.0 | 0.00 | 0.00 | 0.00 | 71 | 979.0 |
| 20260504004130 | 88 | 0 | 0.0 | 0.0 | 0.00 | 0.00 | 0.00 | 72 | 979.0 |
| 20260504004123 | 88 | 0 | 0.0 | 0.0 | 0.00 | 0.00 | 0.00 | 72 | 979.0 |
| 20260504003558 | 88 | 0 | 0.0 | 0.0 | 0.00 | 0.00 | 0.00 | 73 | 979.0 |
| 20260504003034 | 87 | 0 | 0.0 | 0.0 | 0.00 | 0.00 | 0.00 | 76 | 979.0 |
| 20260504002510 | 87 | 0 | 0.0 | 0.0 | 0.00 | 0.00 | 0.00 | 77 | 979.0 |
| 20260504001947 | 87 | 0 | 0.0 | 0.0 | 0.00 | 0.00 | 0.00 | 76 | 979.0 |
| 20260504001424 | 87 | 0 | 0.0 | 0.0 | 0.00 | 0.00 | 0.00 | 76 | 979.0 |
| 20260504000902 | 88 | 0 | 0.0 | 0.0 | 0.00 | 0.00 | 0.00 | 74 | 979.0 |
| 20260504000338 | 87 | 0 | 0.0 | 0.0 | 0.00 | 0.00 | 0.00 | 74 | 979.0 |
| 20260503235815 | 87 | 0 | 0.0 | 0.0 | 0.00 | 0.00 | 0.00 | 74 | 979.0 |
| 20260503235254 | 87 | 0 | 0.0 | 0.0 | 0.00 | 0.00 | 0.00 | 74 | 979.0 |
| 20260503234728 | 87 | 0 | 0.0 | 0.0 | 0.00 | 0.00 | 0.00 | 74 | 979.0 |
| 20260503234210 | 86 | 0 | 0.0 | 0.0 | 0.00 | 0.00 | 0.00 | 74 | 979.0 |
| 20260503233642 | 86 | 0 | 0.0 | 0.0 | 0.00 | 0.00 | 0.00 | 74 | 978.0 |
| 20260503233120 | 85 | 0 | 0.0 | 0.0 | 0.00 | 0.00 | 0.00 | 76 | 978.0 |
| 20260503232559 | 85 | 0 | 0.0 | 0.0 | 0.00 | 0.00 | 0.00 | 75 | 978.0 |
| 20260503232033 | 84 | 0 | 0.0 | 0.0 | 0.00 | 0.00 | 0.00 | 80 | 978.0 |
| 20260503231519 | 84 | 0 | 0.0 | 0.0 | 0.00 | 0.00 | 0.00 | 77 | 978.0 |
| 20260503231512 | 84 | 0 | 0.0 | 0.0 | 0.00 | 0.00 | 0.00 | 77 | 978.0 |
| 20260503230947 | 84 | 0 | 0.0 | 0.0 | 0.00 | 0.00 | 0.00 | 78 | 978.0 |
| 20260503230436 | 83 | 0 | 0.0 | 0.0 | 0.00 | 0.00 | 0.00 | ||
| 20260503230426 | 83 | 0 | 0.0 | 0.0 | 0.00 | 0.00 | 0.00 | 80 | 978.0 |
| 20260503225904 | 84 | 0 | 0.0 | 0.0 | 0.00 | 0.00 | 0.00 | 79 | 978.0 |
| 20260503225339 | 83 | 0 | 0.0 | 0.0 | 0.00 | 0.00 | 0.00 | 80 | 978.0 |
| 20260503224815 | 84 | 0 | 0.0 | 0.0 | 0.00 | 0.00 | 0.00 | 78 | 978.0 |
| 20260503224251 | 83 | 0 | 0.0 | 0.0 | 0.00 | 0.00 | 0.00 | 80 | 978.0 |
| 20260503223727 | 83 | 0 | 0.0 | 0.0 | 0.00 | 0.00 | 0.00 | 81 | 978.0 |
| 20260503223204 | 82 | 0 | 0.0 | 0.0 | 0.00 | 0.00 | 0.00 | 85 | 978.0 |
| 20260503222642 | 83 | 0 | 0.0 | 0.0 | 0.00 | 0.00 | 0.00 | 83 | 978.0 |
| 20260503222120 | 82 | 0 | 0.0 | 0.0 | 0.00 | 0.00 | 0.00 | 85 | 978.0 |
| 20260503221557 | 83 | 0 | 0.0 | 0.0 | 0.00 | 0.00 | 0.00 | 85 | 978.0 |
| 20260503221035 | 83 | 0 | 0.0 | 0.0 | 0.00 | 0.00 | 0.00 | 84 | 978.0 |
| 20260503220510 | 83 | 0 | 0.0 | 0.0 | 0.00 | 0.00 | 0.00 | 85 | 977.0 |
| 20260503215947 | 83 | 0 | 0.0 | 0.0 | 0.00 | 0.00 | 0.00 | 85 | 977.0 |
| 20260503215427 | 83 | 0 | 0.0 | 0.0 | 0.00 | 0.00 | 0.00 | 85 | 977.0 |
| 20260503214901 | 83 | 0 | 0.0 | 0.0 | 0.00 | 0.00 | 0.00 | 83 | 977.0 |
| 20260503214340 | 84 | 0 | 0.0 | 0.0 | 0.00 | 0.00 | 0.00 | 83 | 977.0 |
| 20260503213816 | 84 | 0 | 0.0 | 0.0 | 0.00 | 0.00 | 0.00 | 82 | 977.0 |
| 20260503213255 | 83 | 0 | 0.0 | 0.0 | 0.00 | 0.00 | 0.00 | 85 | 977.0 |
| 20260503212730 | 84 | 0 | 0.0 | 0.0 | 0.00 | 0.00 | 0.00 | 84 | 977.0 |
| 20260503212209 | 84 | 0 | 0.0 | 0.0 | 0.00 | 0.00 | 0.00 | 83 | 977.0 |
| 20260503211644 | 84 | 0 | 0.0 | 0.0 | 0.00 | 0.00 | 0.00 | 82 | 977.0 |
| 20260503211120 | 84 | 0 | 0.0 | 0.0 | 0.00 | 0.00 | 0.00 | 82 | 977.0 |
| 20260503210557 | 85 | 0 | 0.0 | 0.0 | 0.00 | 0.00 | 0.00 | 81 | 977.0 |
| 20260503210036 | 84 | 0 | 0.0 | 0.0 | 0.00 | 0.00 | 0.00 | 82 | 977.0 |
| 20260503205512 | 85 | 0 | 0.0 | 0.0 | 0.00 | 0.00 | 0.00 | 81 | 977.0 |
| 20260503204949 | 85 | 0 | 0.0 | 0.0 | 0.00 | 0.00 | 0.00 | 81 | 977.0 |
| 20260503204426 | 84 | 0 | 0.0 | 0.0 | 0.00 | 0.00 | 0.00 | 83 | 977.0 |
| 20260503203902 | 84 | 0 | 0.0 | 0.0 | 0.00 | 0.00 | 0.00 | 83 | 977.0 |
| 20260503203340 | 85 | 0 | 0.0 | 0.0 | 0.00 | 0.00 | 0.00 | 81 | 977.0 |
| 20260503202818 | 84 | 0 | 0.0 | 0.0 | 0.00 | 0.00 | 0.00 | 82 | 977.0 |
| 20260503202258 | 84 | 0 | 0.0 | 0.0 | 0.00 | 0.00 | 0.00 | 81 | 977.0 |
| 20260503201733 | 85 | 0 | 0.0 | 0.0 | 0.00 | 0.00 | 0.00 | 79 | 977.0 |
| 20260503201210 | 85 | 0 | 0.0 | 0.0 | 0.00 | 0.00 | 0.00 | 79 | 977.0 |
| 20260503200647 | 85 | 0 | 0.0 | 0.0 | 0.00 | 0.00 | 0.00 | 79 | 977.0 |
| 20260503200125 | 86 | 0 | 0.0 | 0.0 | 0.00 | 0.00 | 0.00 | 77 | 977.0 |
| 20260503195601 | 85 | 0 | 0.0 | 0.0 | 0.00 | 0.00 | 0.00 | 79 | 977.0 |
| 20260503195038 | 84 | 0 | 0.0 | 0.0 | 0.00 | 0.00 | 0.00 | 82 | 977.0 |
| 20260503194515 | 84 | 0 | 0.0 | 0.0 | 0.00 | 0.00 | 0.00 | 81 | 977.0 |
| 20260503193951 | 84 | 0 | 0.0 | 0.0 | 0.00 | 0.00 | 0.00 | 84 | 977.0 |
| 20260503193429 | 85 | 0 | 0.0 | 0.0 | 0.00 | 0.00 | 0.00 | 80 | 977.0 |
| 20260503192906 | 85 | 0 | 0.0 | 0.0 | 0.00 | 0.00 | 0.00 | 80 | 977.0 |
| 20260503192344 | 85 | 0 | 0.0 | 0.0 | 0.00 | 0.00 | 0.00 | 78 | 977.0 |
| 20260503191821 | 86 | 0 | 0.0 | 0.0 | 0.00 | 0.00 | 0.00 | 76 | 977.0 |
| 20260503191258 | 87 | 0 | 0.0 | 0.0 | 0.00 | 0.00 | 0.00 | 75 | 977.0 |
| 20260503190735 | 85 | 0 | 0.0 | 0.0 | 0.00 | 0.00 | 0.00 | 79 | 977.0 |
| 20260503190213 | 86 | 0 | 0.0 | 0.0 | 0.00 | 0.00 | 0.00 | 77 | 977.0 |
| 20260503185650 | 85 | 0 | 0.0 | 0.0 | 0.00 | 0.00 | 0.00 | 79 | 977.0 |
| 20260503185130 | 86 | 0 | 0.0 | 0.0 | 0.00 | 0.00 | 0.00 | 76 | 977.0 |
| 20260503184604 | 87 | 0 | 0.0 | 0.0 | 0.00 | 0.00 | 0.00 | 73 | 977.0 |
| 20260503184043 | 87 | 0 | 0.0 | 0.0 | 0.00 | 0.00 | 0.00 | 74 | 977.0 |
| 20260503183519 | 86 | 0 | 0.0 | 0.0 | 0.00 | 0.00 | 0.00 | 76 | 978.0 |
| 20260503182955 | 87 | 0 | 0.0 | 0.0 | 0.00 | 0.00 | 0.00 | 73 | 977.0 |
| 20260503182434 | 87 | 0 | 0.0 | 0.0 | 0.00 | 0.00 | 0.00 | 75 | 978.0 |
| 20260503181909 | 85 | 0 | 0.0 | 0.0 | 0.00 | 0.00 | 0.00 | 78 | 978.0 |
| 20260503181347 | 87 | 0 | 0.0 | 0.0 | 0.00 | 0.00 | 0.00 | 75 | 978.0 |
| 20260503180825 | 86 | 0 | 0.0 | 0.0 | 0.00 | 0.00 | 0.00 | 76 | 978.0 |
| 20260503180301 | 86 | 0 | 0.0 | 0.0 | 0.00 | 0.00 | 0.00 | 78 | 978.0 |
| 20260503175748 | 85 | 0 | 0.0 | 0.0 | 0.00 | 0.00 | 0.00 | 80 | 978.0 |
| 20260503175739 | 85 | 0 | 0.0 | 0.0 | 0.00 | 0.00 | 0.00 | 80 | 978.0 |
| 20260503175216 | 86 | 0 | 0.0 | 0.0 | 0.00 | 0.00 | 0.00 | 77 | 978.0 |
| 20260503174654 | 85 | 0 | 0.0 | 0.0 | 0.00 | 0.00 | 0.00 | 77 | 978.0 |
| 20260503174131 | 86 | 0 | 0.0 | 0.0 | 0.00 | 0.00 | 0.00 | 77 | 978.0 |
| 20260503173607 | 86 | 0 | 0.0 | 0.0 | 0.00 | 0.00 | 0.00 | 78 | 978.0 |
| 20260503173044 | 86 | 0 | 0.0 | 0.0 | 0.00 | 0.00 | 0.00 | 78 | 978.0 |
| 20260503172520 | 85 | 0 | 0.0 | 0.0 | 0.00 | 0.00 | 0.00 | 79 | 978.0 |
| 20260503171957 | 85 | 0 | 0.0 | 0.0 | 0.00 | 0.00 | 0.00 | 79 | 978.0 |
| 20260503171433 | 85 | 0 | 0.0 | 0.0 | 0.00 | 0.00 | 0.00 | 79 | 978.0 |
| 20260503170910 | 85 | 0 | 0.0 | 0.0 | 0.00 | 0.00 | 0.00 | 80 | 978.0 |
| 20260503170347 | 85 | 0 | 0.0 | 0.0 | 0.00 | 0.00 | 0.00 | 80 | 978.0 |
| 20260503150523 | 89 | 0 | 0.0 | 0.0 | 0.00 | 0.00 | 0.00 | 66 | 977.0 |